Theta_e
285 285 285 284 284 283 283 282 282 281 281 280 279 279 279 279 279 279 278 279 279 279 279 279 279 279 279 279 279 279 279 279 280 281 282 282 281 281 282 281 281 281
285 284 283 283 283 282 282 281 281 281 280 279 279 278 278 278 278 279 278 278 278 278 278 278 278 278 278 279 278 279 279 278 280 281 281 281 281 280 281 281 280 280
284 283 282 282 282 281 281 280 280 280 279 278 278 278 278 278 278 278 278 278 278 278 278 278 278 278 278 278 278 279 279 278 279 280 281 281 280 279 280 280 279 280
282 282 281 281 281 280 280 280 279 279 278 278 278 278 278 278 278 278 278 278 278 278 278 278 278 278 278 278 278 279 278 278 278 279 280 280 279 278 279 279 279 279
281 281 280 280 280 279 279 279 279 278 278 278 278 278 278 278 278 278 278 278 278 278 277 277 277 277 277 277 277 277 277 277 278 279 279 279 279 279 279 279 279 279
280 280 280 280 279 279 279 279 278 278 278 278 278 278 277 277 277 277 277 277 277 277 277 277 277 277 277 277 276 277 277 277 278 278 279 279 278 279 279 279 279 279
280 279 279 279 279 279 279 279 278 278 278 277 277 277 277 277 277 277 277 277 277 277 277 277 277 276 276 276 276 277 277 277 278 278 278 278 278 278 278 278 278 278
279 279 279 279 279 279 278 278 278 278 277 277 277 277 277 277 277 277 277 277 277 277 276 276 276 276 276 276 276 277 277 277 277 278 278 278 278 278 277 277 277 277
279 279 279 279 278 278 278 278 278 277 277 277 277 277 277 277 277 277 277 276 276 276 276 276 276 275 275 275 276 276 277 277 277 277 277 277 277 277 276 276 276 277
279 279 279 279 278 278 278 278 277 277 277 277 277 277 277 277 276 276 276 276 276 276 276 276 275 275 275 275 276 276 276 276 277 276 276 276 276 276 276 276 276 276
279 279 278 278 278 278 278 277 277 277 277 277 277 277 277 276 276 276 276 276 276 276 275 275 275 274 275 275 276 276 275 275 276 276 276 276 275 275 275 276 276 275
279 278 278 278 278 278 278 277 277 277 277 277 277 277 277 276 276 276 276 276 276 275 275 275 274 274 275 276 276 275 274 274 275 275 275 275 275 275 275 275 275 275
278 278 278 278 278 278 277 277 277 277 277 277 277 277 276 276 276 276 276 276 275 275 274 274 274 274 275 275 274 274 274 274 274 275 275 275 275 275 275 275 275 275
278 278 278 278 278 278 277 277 277 277 277 277 276 276 276 276 276 276 275 275 275 274 274 273 274 274 274 274 273 273 274 274 274 274 274 274 274 274 275 275 275 275
279 279 279 278 278 277 277 277 277 277 277 277 276 276 276 276 276 275 275 275 274 274 273 273 273 274 274 273 273 273 273 274 274 274 274 274 274 274 275 275 274 274
279 279 278 278 278 277 277 277 277 277 276 276 276 276 276 276 275 275 275 274 274 274 273 273 273 273 273 272 273 273 273 273 273 274 274 274 274 274 274 274 274 274
279 279 278 278 277 277 277 277 276 276 276 276 276 276 276 276 275 275 275 275 274 274 273 273 273 273 272 272 273 273 273 272 272 273 274 274 274 274 274 274 273 273
279 278 278 278 278 277 277 277 276 276 276 276 276 276 276 275 275 275 275 275 274 273 273 272 272 272 272 272 272 273 273 273 272 272 273 274 274 274 273 273 273 273
279 278 278 278 278 277 277 277 276 276 276 276 276 276 276 275 275 275 275 274 274 273 273 272 272 272 272 272 272 272 273 273 272 272 273 273 273 273 273 273 273 273
279 278 278 278 277 277 277 277 277 276 276 276 276 276 276 276 276 275 275 274 273 273 272 272 272 272 272 271 271 272 272 272 272 271 272 272 272 273 273 273 273 272
279 278 278 278 277 277 277 277 276 276 276 276 276 276 276 276 276 275 274 273 273 273 272 272 272 272 272 271 271 271 272 272 272 271 272 272 272 273 273 272 272 272
279 278 278 278 277 277 277 276 276 276 276 276 276 276 276 276 275 275 274 274 273 273 272 272 272 272 271 271 271 271 271 271 271 271 272 272 272 272 272 272 272 272
279 279 278 278 277 277 277 276 276 276 276 276 276 276 276 276 275 275 274 274 273 273 272 272 271 271 271 271 271 271 271 271 271 271 272 272 272 272 272 272 271 271
279 279 278 278 277 277 277 276 276 276 276 276 277 277 276 276 275 275 274 274 274 273 272 272 271 271 271 271 270 270 270 271 271 271 271 271 271 271 271 271 271 271
280 279 279 278 278 277 277 277 276 276 276 277 277 277 276 276 275 275 274 274 274 273 272 271 271 271 271 271 270 270 270 270 270 270 270 271 271 271 271 271 270 270
280 279 279 278 278 277 277 277 277 276 277 277 276 276 276 275 275 275 275 274 274 273 272 271 271 271 270 270 270 270 270 270 270 269 270 270 270 270 270 270 270 270
Wind_Speed
19 19 18 18 17 16 16 16 15 14 13 13 13 12 12 12 13 14 15 14 14 15 14 13 13 13 13 14 13 12 12 12 12 13 12 10 8 8 9 9 8 8
20 19 18 18 18 17 17 16 16 16 15 14 14 14 13 13 14 15 15 14 13 13 13 13 12 11 12 13 12 12 11 10 10 12 11 9 7 8 9 8 8 8
20 20 19 19 19 19 18 17 17 17 16 15 15 14 14 14 14 14 14 13 13 12 12 12 11 11 11 12 12 12 10 9 10 11 10 9 8 8 9 8 8 8
21 20 20 20 20 20 19 18 17 17 16 15 15 14 14 14 14 13 13 12 12 12 11 11 11 11 11 11 11 10 9 9 10 10 10 8 8 8 9 7 7 7
22 21 21 21 20 20 19 18 17 16 16 15 14 14 13 13 13 13 12 12 11 11 11 11 11 11 11 11 10 9 9 9 10 10 9 7 7 8 7 6 6 6
22 22 22 21 20 19 19 18 17 16 15 15 14 14 14 13 13 13 12 12 11 11 11 11 11 10 10 10 9 10 10 10 9 8 7 6 5 5 5 5 5 6
23 22 21 20 19 19 18 18 17 16 16 15 15 14 14 13 13 13 12 12 11 11 11 11 10 10 9 9 9 10 9 8 7 6 5 4 3 4 4 4 5 6
23 22 20 20 19 19 19 18 17 17 16 15 15 15 14 13 13 12 12 11 11 11 10 10 9 9 8 8 9 9 7 5 4 4 3 3 3 3 4 4 5 5
23 22 21 20 20 19 19 19 18 17 16 15 15 14 13 13 12 12 12 11 11 10 9 9 9 8 7 8 8 6 5 4 3 3 2 2 2 3 4 4 4 5
23 23 22 21 21 20 20 19 19 18 17 16 15 14 13 13 12 11 11 10 10 9 9 8 8 7 6 7 5 4 4 4 3 2 2 2 2 3 3 3 4 5
24 23 23 22 21 21 20 20 19 18 17 16 15 14 13 12 12 11 10 10 9 9 8 7 6 6 6 6 3 2 3 3 3 2 2 1 1 2 2 3 4 6
25 25 24 22 22 21 21 20 19 18 17 16 15 14 13 12 12 11 10 10 9 8 7 7 7 6 6 5 3 2 2 3 3 2 0 1 1 1 1 3 4 5
27 26 25 23 22 22 21 20 19 18 17 16 14 14 13 12 12 11 11 10 9 8 8 8 7 7 6 4 3 2 2 2 1 1 2 2 1 1 2 4 5 6
28 27 25 24 23 23 22 20 19 18 17 16 14 13 13 12 12 12 11 10 9 9 8 8 7 6 5 4 3 2 2 1 1 2 2 1 0 2 3 4 5 6
28 27 26 25 23 23 22 21 20 19 17 16 15 14 13 12 12 12 12 11 10 9 8 7 7 6 4 4 3 2 2 2 3 3 2 1 1 2 3 4 5 6
29 28 27 26 25 24 23 22 21 20 18 17 15 14 13 12 12 13 13 12 10 9 7 7 7 6 5 5 3 2 2 3 3 3 2 1 2 3 4 5 5 6
30 29 28 27 26 26 24 23 22 21 19 17 15 14 14 13 14 14 13 12 10 8 7 7 8 7 6 5 4 3 3 3 3 4 3 2 3 4 5 6 6 6
31 30 30 29 28 27 26 24 23 21 19 18 17 16 16 15 14 14 13 12 11 10 10 10 10 8 6 6 5 4 4 5 5 4 4 4 4 5 6 5 6 7
33 32 31 30 29 28 27 25 24 22 21 20 20 18 18 16 15 14 14 13 12 12 11 11 11 9 7 7 7 6 6 6 6 5 5 5 5 5 5 5 6 8
33 33 32 31 30 29 28 27 26 25 23 22 21 20 19 18 16 15 14 14 13 12 12 11 11 10 8 8 8 8 7 7 7 5 5 4 4 4 5 6 7 8
34 34 33 32 31 31 30 29 28 27 26 25 23 22 20 18 17 16 15 14 14 13 12 12 12 12 10 9 9 9 9 8 7 5 4 4 3 4 6 7 7 7
37 36 35 34 34 33 32 31 30 29 28 27 24 22 20 18 17 17 16 15 15 14 13 13 14 14 12 11 10 9 9 9 7 5 4 4 5 6 6 6 5 6
39 37 36 36 36 36 35 34 33 31 30 28 26 24 22 20 19 18 16 16 15 15 15 14 15 15 14 11 10 10 9 9 7 6 6 6 7 6 6 5 6 6
40 39 39 39 38 38 37 35 34 33 32 30 28 26 24 23 22 19 17 16 16 16 16 15 15 16 15 12 10 10 10 9 7 7 7 7 7 6 5 6 7 6
41 41 40 40 39 38 38 37 36 35 33 31 28 27 26 25 23 21 19 17 17 17 16 16 16 17 16 13 11 10 10 9 8 8 7 6 6 5 5 6 6 6
41 41 41 41 40 39 38 38 37 35 33 32 30 28 27 26 24 22 20 18 18 18 18 18 17 17 16 15 12 10 10 9 8 8 7 6 6 6 5 4 5 5
Wind_Direction
148 149 148 145 141 139 138 135 133 133 132 133 132 129 127 124 116 107 100 97 96 94 93 91 91 93 93 90 82 79 75 73 76 74 67 58 51 55 52 38 35 45
154 155 153 149 144 142 142 139 139 141 142 142 140 135 128 122 116 110 103 100 99 97 96 95 94 96 97 91 85 78 71 72 83 80 67 51 43 54 52 37 36 39
159 158 156 152 148 146 145 145 146 146 144 142 139 132 124 119 114 111 107 105 104 102 100 100 99 99 99 94 89 81 67 69 83 84 74 52 34 49 53 38 36 33
159 158 156 153 150 148 146 146 145 144 142 140 137 130 124 120 116 114 112 112 111 108 106 105 102 102 100 95 93 88 76 76 82 80 75 53 31 45 48 35 31 26
157 156 154 152 149 148 147 146 145 144 143 141 136 131 127 124 122 121 121 120 118 114 112 108 105 104 101 95 93 92 88 82 77 73 70 51 31 38 33 20 23 20
157 156 154 152 151 150 149 149 149 149 147 143 139 135 133 131 131 130 129 127 124 120 116 111 108 104 100 97 95 92 87 80 71 68 68 53 36 37 22 11 17 14
158 156 154 154 153 153 153 153 154 154 151 147 143 141 140 139 139 137 135 132 128 124 119 113 109 104 100 99 97 90 81 73 69 71 69 52 39 33 13 13 20 14
159 157 156 157 157 158 159 159 159 156 153 151 148 145 145 145 143 141 139 136 131 126 121 114 109 105 101 98 97 92 85 78 73 74 68 48 38 17 1 13 20 12
162 161 161 161 163 165 166 165 162 158 156 155 152 149 149 148 146 144 142 139 134 128 121 116 110 105 103 100 98 99 106 112 100 82 59 31 28 4 356 13 15 4
166 166 165 166 169 171 170 168 165 162 159 158 155 152 151 150 148 147 145 141 137 132 126 119 114 113 113 109 108 120 135 134 119 92 55 23 18 5 357 4 2 357
170 170 170 171 174 175 174 171 168 165 163 160 157 153 152 152 151 151 150 148 144 140 133 127 127 128 126 125 135 158 149 132 113 92 57 25 359 337 336 345 354 355
174 173 174 176 179 179 176 173 171 168 165 162 159 156 155 156 156 156 157 156 153 148 144 143 145 144 141 147 170 169 134 114 97 88 109 249 260 280 331 357 360 358
178 177 177 180 184 182 178 175 173 171 167 164 161 161 160 160 162 163 164 164 161 158 159 158 154 153 158 174 189 166 124 105 103 182 236 233 235 329 15 9 357 352
181 180 180 184 186 183 180 178 175 172 170 167 164 166 167 167 169 170 170 171 170 168 167 162 158 163 180 202 203 167 133 158 220 230 239 243 340 11 10 355 340 331
182 181 183 186 187 184 182 180 178 176 174 170 170 172 172 172 175 177 178 175 172 173 170 165 170 182 202 217 211 184 179 209 234 243 251 280 332 356 349 331 318 315
183 182 184 186 186 186 185 182 180 180 177 174 174 175 176 178 181 182 183 180 176 177 174 171 186 201 214 222 213 201 214 222 237 246 243 267 308 322 315 307 311 318
183 183 184 186 187 187 185 184 183 182 179 178 179 180 181 184 185 185 186 185 183 185 185 186 200 212 222 224 212 208 234 242 242 238 229 239 274 286 290 297 310 319
185 184 184 186 187 187 187 186 185 183 182 182 185 187 187 188 188 189 190 189 190 193 192 196 208 220 227 226 218 213 228 246 246 231 218 228 251 265 275 291 308 316
186 185 185 187 188 188 188 187 186 186 186 188 190 191 191 190 190 192 192 194 198 198 195 199 213 225 229 227 227 221 223 242 248 230 217 226 237 255 276 295 307 313
187 187 188 188 188 188 189 189 189 189 190 192 193 192 193 192 192 194 196 198 201 201 198 202 217 229 230 228 229 228 228 240 244 225 215 225 236 262 285 292 300 308
189 190 189 188 188 189 190 190 190 191 192 194 195 195 195 194 194 195 197 200 204 204 201 204 216 228 233 231 230 229 230 238 240 223 210 223 240 257 269 279 293 303
191 191 189 189 189 189 190 190 190 191 193 194 196 196 197 197 198 199 199 201 205 208 208 207 213 224 232 232 229 228 232 237 232 213 209 223 235 246 259 273 286 292
192 191 190 190 190 190 190 191 191 192 193 194 195 196 197 199 200 200 201 203 206 210 213 210 210 220 230 233 230 230 234 234 223 209 211 222 231 243 259 267 271 277
193 192 192 191 191 192 191 191 192 193 194 196 197 197 199 201 200 199 201 206 210 214 217 213 211 219 228 234 233 233 236 234 221 211 213 221 231 241 251 262 273 284
195 194 194 193 193 192 192 193 193 193 195 197 199 199 200 201 200 200 201 207 213 215 217 214 211 216 227 235 233 231 236 236 223 215 215 217 227 243 256 269 285 297
196 196 196 195 194 194 194 194 194 194 195 197 198 200 201 201 201 202 203 207 213 216 217 217 216 218 226 233 231 227 232 233 224 217 213 211 222 244 263 277 289 300